Location: Kelshall
(52.0000°N, 0.0500°W)
Time: 14:42:26
(UTC+00:00)

Cosmos 2098 Rocket - Pass Details

Date: 18 September 2020
Orbit: 366 x 1185 km, 82.9° (Epoch: 27 October)

Event Time Altitude Azimuth Distance (km) Brightness Sun altitude
Rises 20:51:08 0° 350° (N) 4,086 8.0 -24.2°
Reaches altitude 10° 20:53:59 10° 354° (N) 3,088 7.2 -24.5°
Maximum altitude 21:01:15 63° 75° (ENE) 1,193 4.2 -25.4°
Enters shadow 21:02:19 56° 115° (ESE) 1,244 4.1 -25.5°
